OBJECT F, 66000

Orbit data source: Space-Track

You're viewing an Uncataloged Satellite

Recently launched and/or uncataloged satellites may have evolving metadata. Metadata may include but not limited to: Owner, Maufacturer, Bus, Motor, and Mission.

OBJECT F, 66000 is a satellite owned by Zhongguo Xingwang (CN) in LEO that was launched on Thu, 16 Oct 2025 UTC via a CHANG ZHENG 8A launch vehicle from the Wenchang Satellite Launch Center (WSC). Unknown objects in Earth's orbit typically refer to objects detected orbiting the Earth but have not yet been identified or cataloged. These objects could be anything from previously untracked satellites, spent rocket stages, debris from satellite collisions, or even natural meteoroids temporarily captured by Earth's gravity.

Loading next visibility...
Identifier
66000, 2025-231F
Orbit
LEO
Country
Flag of CNCN / PRC
Related business
Manufacturer
CAST
Mission
Operational spacecraft
Bus & Motor
GUOWANG C, Unknown motor
Mass
~800 kg wet, ~800 kg dry
Launch date (UTC)
2025-10-16 (2 months ago)
Launch vehicle
CHANG ZHENG 8A
Launch site
Wenchang Satellite Launch Center (WSC)
Object type
Unknown
Shape & HBR
Unknown shape, 1.1 m
Radar Cross Section
RCS unknown

Expand to show TLE details & history
Last TLE update: 16 hours ago

TLE from 16 hours ago
0 OBJECT F
1 66000U 25231F   25340.95518510 -.00000042  00000-0  10924-3 0  9999
2 66000  50.0046 149.3682 0000681 152.0198 208.0729 13.70019789  7250
Epoch: 2025-12-06T22:55Z
TLE epoch observation values (Epoch: 2025-12-06T22:55:27.992Z)
Latitude
0.00001°
Longitude
89.52607°
Altitude
1,000.46 km
Speed
7.352 km/s
True Right ascension
09h 57m 28s
True Declination
0° 00' 00"
Sunlit
Object was in daylight at epoch
Visualization orbit readout
Latitude
Unknown
Longitude
Unknown
Altitude
Unknown
Speed
Unknown
Apparent Right ascension
Unknown
Apparent Declination
Unknown
Sunlit
N/A
Visualization observer readout
Local Sidereal Time
12:45:13
Azimuth
Unknown
Elevation
Unknown
Doppler factor
Unknown
Orbital elements
Apogee altitude
1,000.721 km
Perigee altitude
999.716 km
Semi-major axis
7,378.356 km
Eccentricity
0.00007
Inclination
50.0046°
RAAN
149.3682°
Arg. of periapsis
152.0198°
True anomaly
208.06923°
Mean anomaly
208.0729°
Eccentric anomaly
208.07106°
Mean motion
3.42455 °/min
Orbital period
105.12 mins
BSTAR
0.00010924
Loading maneuver chart data...
Computing Atmospheric mass density...
Loading historical data...
Loading historical data...
Loading historical data...
Loading historical data...
Loading historical data...
Loading historical data...
Loading historical data...

Documentation

Showing up to 5 results
|